Theta_e
353 359 364 362 361 362 361 362 363 363 363 362 361 361 361 362 361 361 361 361 361 362 358 358 359 360 360 358 356 356 355 354 353 350 352 351 352 353 357 358 356 349 354
356 360 364 363 361 359 359 360 362 363 363 363 362 361 361 361 360 360 360 360 361 359 358 358 358 357 358 359 359 359 358 357 356 354 351 349 350 352 353 354 358 351 357
356 357 360 363 361 359 358 359 360 360 361 361 361 361 360 360 359 359 359 359 358 358 357 357 357 357 358 358 359 360 361 361 360 358 357 349 345 350 355 355 357 356 357
356 356 358 363 362 359 359 360 360 360 359 359 359 359 358 359 358 358 358 357 356 356 356 356 357 357 357 357 358 358 360 359 359 359 352 349 346 354 360 359 359 358 357
355 357 358 363 363 361 360 361 361 360 360 360 359 358 357 357 355 355 355 355 354 354 355 356 356 358 358 358 359 359 359 358 358 356 349 347 343 349 357 361 361 361 359
356 359 361 363 363 362 360 361 361 361 361 361 360 360 359 358 357 357 357 356 354 354 355 356 357 359 358 359 360 361 360 358 357 350 350 349 347 349 354 362 361 362 361
355 358 359 363 363 362 360 360 361 359 357 356 355 356 357 357 357 358 358 358 357 357 357 357 359 359 358 359 359 360 361 359 354 348 349 348 344 349 353 361 361 361 361
354 356 355 361 361 361 360 359 355 352 349 347 351 350 348 350 351 353 356 358 358 359 358 358 359 359 358 358 358 358 358 357 353 352 349 348 349 352 356 357 360 360 361
351 352 353 355 356 357 355 354 351 348 349 350 348 348 347 347 347 348 348 348 349 350 350 352 352 353 355 355 356 356 358 356 348 350 353 351 353 355 357 357 360 360 360
348 350 347 345 340 338 340 351 350 349 349 348 347 345 344 340 342 345 342 344 347 346 347 345 345 344 345 346 351 354 356 356 351 350 349 350 354 357 357 356 358 361 358
343 333 328 324 321 327 334 345 346 350 347 342 338 342 332 328 328 330 339 343 344 343 343 342 341 342 341 338 342 346 347 347 350 350 350 352 354 355 357 357 356 360 359
325 324 324 324 322 322 333 328 325 330 329 328 327 326 325 326 329 330 331 336 335 337 335 336 336 335 332 324 327 333 329 330 340 347 347 353 354 357 357 356 354 357 358
324 327 326 325 323 323 323 321 320 321 324 327 327 325 322 323 323 323 320 321 322 329 322 323 321 322 323 322 322 324 325 326 327 329 333 345 348 352 356 356 354 355 357
325 326 327 326 323 322 323 321 318 319 320 323 322 324 321 319 319 322 318 318 318 320 318 317 317 318 320 321 321 320 320 320 321 323 328 341 344 349 348 352 354 354 355
325 327 328 326 322 324 321 322 318 317 320 319 319 324 320 318 317 322 317 318 317 320 317 316 315 317 319 319 319 319 320 319 318 320 324 335 342 341 343 346 349 354 355
325 325 325 326 322 322 321 319 318 315 320 318 320 322 321 318 317 321 317 319 317 318 319 316 315 316 317 316 317 318 318 317 317 320 322 321 335 339 340 340 343 349 355
325 325 323 323 323 318 318 321 320 320 319 318 320 321 322 320 319 319 318 317 318 319 316 316 316 315 316 316 315 316 318 318 319 319 319 321 325 331 334 337 341 346 352
326 323 322 324 322 321 320 319 318 318 317 317 318 317 318 317 318 317 316 318 319 315 314 314 312 313 312 312 314 316 317 317 317 317 319 321 320 321 329 335 339 343 347
323 321 320 320 321 319 317 317 317 316 316 316 315 314 315 318 318 315 314 315 314 313 313 311 311 310 311 312 313 312 313 312 313 317 316 316 319 322 322 329 336 341 345
322 321 320 320 320 317 317 317 315 314 315 315 313 312 314 315 317 314 313 313 312 311 310 310 309 310 310 311 312 311 311 312 313 312 313 317 317 320 321 326 329 335 344
322 321 321 319 318 316 316 314 311 310 311 313 311 314 314 314 317 312 310 311 311 310 309 309 308 308 308 308 307 308 309 310 310 310 312 314 316 318 324 326 332 336 338
320 320 319 318 316 315 316 316 312 311 312 313 311 311 312 314 314 312 309 309 309 308 308 308 307 307 307 307 304 306 300 303 306 311 311 313 313 319 321 328 333 332 333
319 320 319 318 315 315 315 313 311 311 310 308 309 308 310 314 313 311 310 309 308 306 307 306 307 305 306 309 307 307 303 301 305 308 310 309 313 315 320 324 331 333 331
320 320 318 318 315 315 313 311 309 307 306 307 307 307 309 310 310 311 310 309 307 306 305 307 311 308 308 308 309 310 308 309 304 304 309 308 311 313 317 322 322 327 326
320 316 316 316 315 314 312 312 310 308 307 307 306 305 305 307 308 310 309 308 306 306 307 307 308 308 308 307 308 307 309 310 310 308 302 304 310 310 318 316 319 322 322
314 316 317 315 314 315 316 315 310 307 305 304 304 303 304 304 305 306 308 306 305 305 306 306 308 304 304 307 309 308 307 306 305 306 305 303 304 308 313 318 317 320 320
Wind_Speed
2 3 8 13 12 12 13 14 13 14 13 12 13 13 12 11 11 11 11 9 8 8 8 6 6 6 5 5 4 4 4 4 3 2 2 3 5 6 8 12 10 10 12
5 3 10 13 13 13 14 14 14 13 12 12 13 12 11 11 10 9 8 7 6 7 6 4 4 4 5 6 5 4 5 5 6 6 5 3 3 6 6 5 4 9 13
5 5 9 13 14 14 13 13 13 12 11 11 11 11 10 10 9 8 6 5 5 5 4 4 4 5 6 7 8 7 8 8 8 9 10 4 4 8 9 9 7 10 11
8 5 7 13 12 14 13 11 11 12 11 11 9 9 8 7 7 6 6 5 4 4 4 4 5 6 7 8 8 9 9 10 11 12 5 6 6 11 10 13 12 12 11
8 7 9 12 11 12 12 11 10 10 9 10 8 7 6 6 6 5 5 4 4 5 5 6 7 7 9 9 9 9 9 11 12 11 6 6 5 10 13 15 15 16 15
9 7 10 11 11 11 11 11 9 10 9 9 7 6 7 7 6 6 6 5 5 5 6 7 8 9 10 11 11 11 12 12 13 6 6 7 8 10 14 11 18 18 18
10 8 8 11 11 10 11 11 9 9 9 8 7 7 7 6 6 6 5 6 8 9 10 10 10 10 11 12 13 13 13 15 10 6 7 7 7 12 12 13 18 18 18
10 7 9 12 10 10 10 10 10 10 10 10 11 10 9 9 8 12 9 10 11 11 11 12 13 13 13 14 14 14 14 16 11 8 8 7 11 15 15 15 19 19 19
10 9 6 6 9 12 11 10 10 10 10 12 15 16 17 17 16 15 15 14 15 15 14 14 15 14 13 14 15 16 16 18 11 7 10 8 15 17 18 15 19 21 21
7 5 5 4 4 6 5 7 8 8 11 13 15 16 16 16 15 15 14 16 17 18 17 17 17 16 15 16 14 14 15 16 9 9 8 9 20 21 21 21 18 21 21
7 5 5 4 3 2 5 4 5 7 10 12 11 14 10 5 7 10 16 19 20 20 17 18 17 15 16 16 16 17 16 5 6 6 6 16 20 23 24 22 22 20 22
7 5 4 3 3 2 4 5 5 6 5 5 6 7 5 6 6 7 10 15 16 15 17 17 18 17 13 7 6 12 4 6 5 6 6 17 19 23 25 23 22 20 23
9 7 6 9 6 7 4 2 2 3 3 3 5 5 5 4 4 4 3 4 5 9 5 7 8 6 8 8 7 5 6 8 6 5 9 18 19 19 22 22 22 22 22
11 9 9 8 7 6 3 4 4 4 3 2 2 3 4 3 4 4 3 4 4 3 5 5 4 5 7 9 7 10 9 7 7 7 7 20 21 18 21 20 22 24 20
13 10 9 8 7 6 7 5 5 4 4 4 3 4 3 4 3 3 4 3 4 4 4 5 5 5 8 7 8 9 11 10 11 7 6 18 19 22 21 23 23 25 22
12 10 8 9 8 8 6 5 4 4 5 5 4 4 3 4 4 3 4 4 5 4 5 5 5 5 5 6 10 11 11 11 11 12 7 8 19 16 21 26 26 23 23
12 11 11 9 8 8 6 5 5 5 6 5 5 6 7 6 6 6 5 5 4 4 6 5 5 5 6 7 9 10 11 12 10 7 11 10 8 18 20 25 26 25 21
14 11 9 9 8 8 7 5 4 5 4 5 7 5 9 7 6 5 4 4 5 5 4 4 4 4 5 5 6 8 9 11 12 12 8 7 11 9 12 21 26 25 25
14 13 10 10 9 8 7 6 6 7 6 4 3 3 5 5 6 4 4 4 6 4 4 4 3 3 5 6 8 10 10 11 11 10 11 12 9 11 9 17 24 25 25
13 12 12 9 10 8 6 5 4 4 3 2 2 3 4 4 5 4 3 4 4 4 4 4 5 4 5 7 9 9 8 7 9 10 9 6 10 12 10 11 11 12 22
10 11 9 9 6 5 3 4 3 1 1 1 1 4 3 4 4 4 3 4 4 4 4 5 4 6 5 4 7 8 7 11 9 5 4 7 10 10 12 12 9 7 7
9 7 6 8 6 5 4 2 3 3 3 3 2 3 3 5 5 4 4 4 5 4 6 6 5 6 4 3 5 8 5 6 3 9 7 7 8 7 11 11 9 7 5
10 8 9 8 8 6 5 3 2 2 2 3 3 3 4 5 5 5 5 4 5 4 6 6 6 6 7 8 5 4 6 4 9 5 8 4 6 8 9 9 9 7 3
5 8 8 7 7 5 6 3 4 3 3 3 2 3 4 5 6 5 5 5 5 4 5 5 7 6 5 8 7 3 5 8 5 5 2 5 5 9 7 6 6 7 7
5 3 5 7 6 5 6 7 5 4 1 1 2 4 3 4 6 5 4 5 5 4 5 6 7 6 4 6 6 5 7 6 7 3 4 5 7 4 2 4 6 6 8
6 7 6 8 6 7 4 2 2 1 1 1 3 3 4 3 4 5 5 5 5 5 5 5 6 6 5 5 6 4 4 4 6 3 3 5 6 5 2 3 3 4 3
Wind_Direction
172 152 109 95 85 83 86 85 85 90 88 85 80 78 78 74 76 78 81 80 77 80 79 67 53 45 44 50 50 33 20 19 20 29 82 155 175 185 187 173 154 152 149
122 132 102 92 88 82 79 78 79 79 81 84 83 78 79 77 74 75 78 73 66 68 58 42 20 6 358 355 355 351 341 337 335 332 327 313 269 217 222 215 161 159 158
133 118 98 94 93 90 86 86 85 83 79 80 84 87 83 82 78 72 61 55 56 48 38 16 352 335 327 324 324 328 327 324 321 318 314 307 284 260 228 220 214 184 176
127 110 101 99 99 97 94 89 90 91 89 82 75 78 78 80 84 80 68 51 38 19 1 344 329 319 313 307 304 305 304 302 303 305 307 301 300 295 246 218 208 201 196
118 105 101 96 92 92 93 92 88 87 86 87 82 77 74 72 68 64 56 28 8 350 330 320 312 304 298 292 287 282 280 284 289 292 291 286 281 284 284 239 207 204 202
107 96 102 106 107 101 97 93 88 83 76 72 69 63 57 46 30 24 20 0 334 327 317 315 305 297 293 289 283 280 280 282 285 269 263 270 278 274 282 231 211 210 206
124 125 117 113 109 107 106 100 94 85 81 73 61 47 40 38 21 14 359 334 329 325 319 311 296 289 284 282 282 280 277 278 279 269 265 263 261 269 269 238 222 220 218
125 123 120 125 123 119 114 111 105 98 84 59 55 48 34 22 24 12 357 355 340 320 314 305 299 292 285 282 282 278 276 280 282 279 271 269 268 268 269 250 231 226 224
132 129 125 135 139 133 132 135 123 110 82 71 66 55 49 46 44 41 43 22 16 12 1 354 351 338 324 313 303 293 288 287 284 266 266 267 266 264 269 267 237 229 227
112 115 128 139 126 129 137 121 112 91 70 67 64 59 50 42 36 33 27 18 10 10 17 19 12 6 2 349 329 315 304 295 278 267 262 258 262 264 261 266 263 238 233
104 89 92 78 46 52 100 87 69 82 76 68 60 62 49 38 30 28 17 13 9 7 17 12 7 2 1 352 344 337 335 315 283 274 268 266 264 263 264 258 260 246 231
109 87 84 106 108 20 75 59 59 81 79 70 72 67 68 48 34 34 19 15 9 18 12 5 358 355 356 348 339 341 327 319 311 304 299 293 286 277 271 265 262 253 233
124 98 86 85 63 75 78 74 88 84 70 63 77 85 76 61 32 22 7 6 357 1 358 356 350 347 338 336 335 333 334 339 331 320 312 311 311 312 292 277 267 258 242
121 104 89 88 81 69 61 59 57 47 43 64 30 93 62 40 24 13 353 347 358 342 342 345 337 318 330 335 337 332 332 328 324 316 305 309 313 322 327 317 293 268 251
108 104 99 95 79 59 51 41 34 32 40 22 7 56 64 34 6 318 320 335 334 340 340 338 330 339 338 337 330 325 320 322 320 313 306 306 308 317 316 316 311 297 269
115 107 96 79 69 64 53 30 20 30 34 29 27 43 35 350 342 305 323 320 317 353 332 330 329 334 322 322 325 320 316 311 306 303 308 316 301 302 315 310 304 299 282
130 131 112 102 87 65 51 37 40 38 39 47 32 12 13 356 356 355 335 330 338 336 328 339 335 330 324 315 307 314 316 312 308 306 310 304 306 308 303 300 300 292 280
131 119 104 97 81 78 73 62 53 42 43 32 33 25 12 359 21 4 354 343 327 319 316 324 308 307 302 295 301 309 307 308 309 306 301 307 300 301 298 295 295 290 281
125 122 111 95 92 93 83 78 61 45 39 31 43 20 6 8 359 10 350 317 317 320 320 317 310 294 309 295 299 304 299 300 301 302 302 298 295 299 294 299 296 291 281
135 129 123 120 125 120 112 97 71 57 36 45 15 8 17 333 347 348 341 330 331 327 311 316 313 304 295 291 302 298 289 287 292 292 294 300 294 301 301 291 285 283 279
129 128 127 123 131 112 92 101 83 112 266 277 326 327 339 328 343 353 324 339 331 325 310 311 283 302 308 292 305 306 287 280 279 291 296 300 298 302 310 303 298 274 284
132 129 120 124 144 128 116 134 152 177 218 215 282 294 322 346 355 356 352 335 339 326 318 308 306 309 295 306 290 296 313 310 334 320 300 290 294 309 313 310 306 301 281
138 149 152 154 155 133 125 108 43 14 358 348 309 296 303 24 357 337 339 338 327 317 315 299 295 295 307 315 281 272 308 306 317 291 292 301 310 322 313 314 326 318 304
177 178 143 148 134 128 139 144 178 203 205 234 269 284 339 14 320 321 340 330 317 307 303 299 311 295 288 313 314 247 253 277 297 299 306 294 308 305 329 343 341 28 12
178 95 110 111 124 161 186 193 181 205 241 300 274 334 333 303 301 314 328 306 305 308 300 295 315 324 314 319 309 313 313 290 256 281 301 316 313 284 288 329 358 35 47
154 137 123 132 180 206 212 198 181 187 114 341 305 321 303 292 299 313 312 309 303 303 300 314 310 313 303 300 297 292 314 335 332 328 303 302 283 300 251 289 25 32 50